Weather History for Nebraska City, NE

Change the Weather History Date:

Friday, November 16, 2012

  Actual Average (KSDA) Record (KSDA)
Temperature  
Mean Temperature 42 °F -  
Max Temperature 56 °F 51 °F 77 °F (2001)
Min Temperature 28 °F 29 °F 4 °F (1955)
Degree Days  
Heating Degree Days 23    
Moisture  
Dew Point 32 °F    
Average Humidity 72    
Maximum Humidity 94    
Minimum Humidity 42    
Precipitation  
Precipitation 0.00 in - - ()
Sea Level Pressure  
Sea Level Pressure 30.39 in    
Wind  
Wind Speed 3 mph (SSE)    
Max Wind Speed 10 mph    
Max Gust Speed -    
Visibility 10 miles    
Events      
Averages and records for this station are not official NWS values.
T = Trace of Precipitation, MM = Missing Value Source: NWS Daily Summary

Daily Weather History Graph

Daily Weather History Graph

Search for Another Location

Airport:

Trip Planner

Search our weather history database for the weather conditions in past years. The results will help you decide how hot, cold, wet, or windy it might be!

Date:

Astronomy

Nov. 16, 2012 Rise Set
Actual Time 7:11 AM CST 5:04 PM CST
Civil Twilight 6:42 AM CST 5:33 PM CST
Nautical Twilight 6:09 AM CST 6:07 PM CST
Astronomical Twilight 5:36 AM CST 6:39 PM CST
Moon 10:07 AM CST (11/16) 8:05 PM CST (11/16)
Length of Visible Light 10h 51m
Length of Day
9h 52m
Waxing Crescent, 12% of the Moon is Illuminated
Nov 16
Waxing Crescent
Nov 20
First Quarter
Nov 28
Full
Dec 6
Last Quarter
Dec 13
New

Hourly Weather History & Observations

Time (CST) Temp. Windchill Dew Point Humidity Pressure Visibility Wind Dir Wind Speed Gust Speed Precip Events Conditions
12:15 AM 36.0 °F - 30.9 °F 82% 30.42 in 10.0 mi Calm Calm - N/A   Clear
12:35 AM 35.6 °F - 30.9 °F 83% 30.43 in 10.0 mi Calm Calm - N/A   Clear
12:55 AM 36.0 °F 29.0 °F 31.1 °F 82% 30.43 in 10.0 mi North 9.2 mph - N/A   Clear
1:15 AM 34.2 °F 26.8 °F 30.6 °F 87% 30.43 in 10.0 mi NNE 9.2 mph - N/A   Clear
1:35 AM 33.8 °F 27.7 °F 30.0 °F 86% 30.43 in 10.0 mi NNE 6.9 mph - N/A   Clear
1:55 AM 33.4 °F - 30.0 °F 87% 30.43 in 10.0 mi Calm Calm - N/A   Clear
2:15 AM 32.7 °F - 29.5 °F 88% 30.43 in 10.0 mi Calm Calm - N/A   Clear
2:35 AM 32.4 °F - 29.3 °F 88% 30.44 in 10.0 mi Calm Calm - N/A   Clear
2:55 AM 32.9 °F 25.9 °F 29.7 °F 88% 30.44 in 10.0 mi NNE 8.1 mph - N/A   Clear
3:15 AM 32.7 °F 27.3 °F 29.5 °F 88% 30.44 in 10.0 mi NNE 5.8 mph - N/A   Clear
3:35 AM 32.0 °F - 29.1 °F 89% 30.44 in 10.0 mi Calm Calm - N/A   Clear
3:55 AM 31.1 °F - 28.2 °F 89% 30.43 in 10.0 mi Calm Calm - N/A   Clear
4:15 AM 30.9 °F 24.3 °F 27.9 °F 88% 30.43 in 10.0 mi NNE 6.9 mph - N/A   Clear
4:35 AM 31.1 °F - 28.0 °F 88% 30.43 in 10.0 mi Calm Calm - N/A   Clear
4:55 AM 30.9 °F - 27.5 °F 87% 30.43 in 10.0 mi Calm Calm - N/A   Clear
5:15 AM 29.8 °F - 27.0 °F 89% 30.43 in 10.0 mi Calm Calm - N/A   Clear
5:35 AM 29.8 °F - 26.8 °F 88% 30.43 in 10.0 mi Calm Calm - N/A   Clear
5:55 AM 29.1 °F - 27.0 °F 92% 30.43 in 10.0 mi Calm Calm - N/A   Clear
6:15 AM 28.9 °F - 26.6 °F 91% 30.43 in 10.0 mi Calm Calm - N/A   Clear
6:35 AM 28.2 °F - 26.8 °F 94% 30.43 in 10.0 mi Calm Calm - N/A   Clear
6:55 AM 28.2 °F - 26.6 °F 94% 30.43 in 10.0 mi Calm Calm - N/A   Clear
7:15 AM 28.4 °F - 26.8 °F 94% 30.43 in 10.0 mi Calm Calm - N/A   Clear
7:35 AM 28.9 °F - 27.0 °F 92% 30.44 in 10.0 mi Calm Calm - N/A   Clear
7:55 AM 29.3 °F - 27.1 °F 92% 30.44 in 10.0 mi Calm Calm - N/A   Clear
8:15 AM 30.9 °F - 28.4 °F 90% 30.45 in 10.0 mi Calm Calm - N/A   Clear
8:35 AM 32.0 °F - 28.4 °F 87% 30.45 in 10.0 mi Calm Calm - N/A   Clear
8:55 AM 33.3 °F - 29.5 °F 86% 30.45 in 10.0 mi Calm Calm - N/A   Clear
9:15 AM 35.8 °F - 30.7 °F 82% 30.46 in 10.0 mi Calm Calm - N/A   Clear
9:35 AM 38.1 °F - 31.6 °F 77% 30.46 in 10.0 mi Calm Calm - N/A   Clear
9:55 AM 39.4 °F - 31.8 °F 74% 30.46 in 10.0 mi Calm Calm - N/A   Clear
10:15 AM 40.6 °F - 32.2 °F 72% 30.46 in 10.0 mi Calm Calm - N/A   Clear
10:35 AM 42.3 °F - 32.9 °F 69% 30.46 in 10.0 mi Calm Calm - N/A   Clear
10:55 AM 43.7 °F - 33.3 °F 67% 30.46 in 10.0 mi Calm Calm - N/A   Clear
11:15 AM 46.0 °F - 34.0 °F 63% 30.45 in 10.0 mi Calm Calm - N/A   Clear
11:35 AM 47.7 °F - 33.8 °F 59% 30.44 in 10.0 mi Calm Calm - N/A   Clear
11:55 AM 49.6 °F - 34.5 °F 56% 30.43 in 10.0 mi Calm Calm - N/A   Clear
12:15 PM 50.9 °F - 34.5 °F 54% 30.42 in 10.0 mi Calm Calm - N/A   Clear
12:35 PM 52.2 °F - 34.7 °F 51% 30.41 in 10.0 mi South 4.6 mph - N/A   Clear
12:55 PM 52.9 °F - 35.2 °F 51% 30.41 in 10.0 mi Calm Calm - N/A   Clear
1:15 PM 53.8 °F - 35.4 °F 50% 30.40 in 10.0 mi South 4.6 mph - N/A   Clear
1:35 PM 55.0 °F - 35.2 °F 47% 30.39 in 10.0 mi SE 10.4 mph - N/A   Clear
1:55 PM 55.6 °F - 34.5 °F 45% 30.38 in 10.0 mi SSE 5.8 mph - N/A   Clear
2:15 PM 56.1 °F - 34.2 °F 44% 30.37 in 10.0 mi SSE 8.1 mph - N/A   Clear
2:35 PM 56.5 °F - 34.5 °F 44% 30.36 in 10.0 mi SSE 10.4 mph - N/A   Clear
2:55 PM 56.7 °F - 34.5 °F 43% 30.35 in 10.0 mi SSE 8.1 mph - N/A   Clear
3:15 PM 56.7 °F - 33.6 °F 42% 30.34 in 10.0 mi SE 4.6 mph - N/A   Clear
3:35 PM 56.3 °F - 33.8 °F 43% 30.34 in 10.0 mi SE 9.2 mph - N/A   Clear
3:55 PM 55.8 °F - 34.0 °F 44% 30.34 in 10.0 mi SE 9.2 mph - N/A   Clear
4:15 PM 54.9 °F - 34.0 °F 45% 30.34 in 10.0 mi SE 8.1 mph - N/A   Clear
4:35 PM 53.8 °F - 34.7 °F 48% 30.33 in 10.0 mi SE 8.1 mph - N/A   Clear
4:55 PM 52.5 °F - 34.9 °F 51% 30.33 in 10.0 mi SE 9.2 mph - N/A   Clear
5:15 PM 50.9 °F - 34.9 °F 54% 30.33 in 10.0 mi SE 6.9 mph - N/A   Clear
5:35 PM 46.8 °F - 34.5 °F 62% 30.33 in 10.0 mi Calm Calm - N/A   Clear
5:55 PM 45.9 °F 42.9 °F 34.7 °F 65% 30.33 in 10.0 mi South 5.8 mph - N/A   Clear
6:15 PM 45.7 °F 42.0 °F 34.7 °F 65% 30.33 in 10.0 mi SSE 6.9 mph - N/A   Clear
6:35 PM 43.2 °F - 34.3 °F 71% 30.33 in 10.0 mi Calm Calm - N/A   Clear
6:55 PM 43.3 °F - 34.3 °F 71% 30.33 in 10.0 mi Calm Calm - N/A   Clear
7:15 PM 43.0 °F - 34.2 °F 71% 30.33 in 10.0 mi Calm Calm - N/A   Clear
7:55 PM 41.9 °F 36.3 °F 33.6 °F 72% 30.33 in 10.0 mi South 9.2 mph - N/A   Clear
8:15 PM 41.4 °F 39.4 °F 33.3 °F 73% 30.32 in 10.0 mi SSE 3.5 mph - N/A   Clear
8:35 PM 43.5 °F 38.3 °F 34.0 °F 69% 30.31 in 10.0 mi SSE 9.2 mph - N/A   Clear
8:55 PM 40.8 °F 35.6 °F 33.1 °F 74% 30.32 in 10.0 mi South 8.1 mph - N/A   Clear
9:15 PM 42.3 °F 36.3 °F 33.8 °F 72% 30.32 in 10.0 mi South 10.4 mph - N/A   Clear
9:35 PM 41.9 °F 35.9 °F 34.0 °F 73% 30.32 in 10.0 mi South 10.4 mph - N/A   Clear
9:55 PM 42.1 °F 36.1 °F 34.0 °F 73% 30.31 in 10.0 mi South 10.4 mph - N/A   Clear
10:15 PM 43.0 °F 37.7 °F 34.3 °F 72% 30.31 in 10.0 mi South 9.2 mph - N/A   Clear
10:35 PM 42.1 °F 37.1 °F 34.3 °F 74% 30.31 in 10.0 mi South 8.1 mph - N/A   Clear
10:55 PM 41.0 °F 35.8 °F 34.0 °F 76% 30.31 in 10.0 mi South 8.1 mph - N/A   Clear
11:15 PM 40.1 °F - 33.4 °F 77% 30.31 in 10.0 mi Calm Calm - N/A   Clear
11:35 PM 41.2 °F - 34.0 °F 76% 30.32 in 10.0 mi Calm Calm - N/A   Clear
11:55 PM 41.2 °F 35.0 °F 34.0 °F 76% 30.32 in 10.0 mi South 10.4 mph - N/A   Clear